SCP
-0 0 0 0 0 0 0 -0 0 0 0 0 0 0 -0 -0 -0 0 0 0 -0 -0 0 0 0 0 -0 -0 -0 0 -0 0 0 0 -0 0 -0 -0 -0 -0 -0 0 -0 -0 -0 -0 -0 -0 -0
0 0 0 0 0 0 0 -0 0 0 0 0 0 0 0 -0 0 -0 -0 0 0 -0 0 0 0 0 -0 -0 -0 -0 0 0 0 -0 -0 -0 -0 -0 -0 -0 0 0 0 -0 -0 -0 -0 -0 -0
0 0 0 -0 -0 0 0 0 0 0 0 0 0 0 0 0 -0 -0 -0 -0 0 -0 0 0 0 0 0 -0 0 0 -0 -0 0 -0 -0 -0 -0 -0 -0 -0 -0 0 -0 -0 -0 -0 -0 -0 -0
0 0 0 0 0 0 0 0 0 0 0 0 0 0 0 0 0 -0 -0 -0 -0 -0 -0 0 0 0 0 0 0 0 0 0 -0 -0 -0 -0 -0 -0 0 -0 -0 -0 -0 -0 -0 -0 -0 -0 -0
0 0 0 0 0 0 0 0 0 0 0 0 0 0 0 0 -0 -0 -0 -0 -0 0 -0 0 0 0 0 0 0 -0 -0 -0 -0 -0 -0 -0 0 -0 0 0 -0 -0 -0 -0 -0 -0 -0 -0 0
0 0 0 0 0 0 0 0 0 0 0 0 0 0 0 -0 -0 -0 -0 -0 -0 -0 -0 0 0 0 0 0 0 -0 -0 -0 -0 -0 -0 -0 -0 0 0 0 -0 -0 -0 -0 -0 -0 -0 0 0
0 0 0 0 0 0 0 0 0 0 0 0 0 0 0 0 -0 -0 0 -0 -0 0 -0 0 0 0 0 0 0 0 -0 -0 -0 -0 -0 0 0 0 0 0 -0 -0 -0 -0 -0 -0 -0 0 0
0 0 0 0 0 0 0 0 0 0 0 0 0 0 0 0 0 0 0 0 0 0 0 0 0 0 0 0 0 0 -0 -0 -0 -0 0 0 0 0 0 0 0 -0 -0 -0 -0 -0 -0 0 0
0 0 0 0 0 0 0 0 0 0 0 0 0 0 0 0 0 0 0 0 0 0 0 0 0 0 0 0 0 0 0 0 0 0 0 0 0 0 0 0 -0 -0 -0 -0 -0 -0 0 0 0
0 0 0 0 0 0 0 0 0 0 0 0 0 0 0 0 0 0 0 0 0 0 0 0 0 0 0 0 0 0 0 0 0 0 0 -0 0 0 0 0 -0 -0 -0 -0 0 0 0 0 0
0 0 0 0 0 0 0 0 0 0 0 0 0 0 0 0 0 0 0 0 0 0 0 0 0 0 0 0 0 0 0 0 0 0 0 -0 0 0 0 0 0 0 0 0 0 0 0 0 0
0 0 0 0 0 0 0 0 0 0 0 0 0 0 0 0 0 0 0 0 0 0 0 0 0 0 0 0 0 0 0 0 0 0 0 0 0 0 0 0 0 0 0 -0 0 0 0 0 0
0 0 0 0 0 0 0 0 0 0 0 0 0 0 0 0 0 0 0 0 0 0 0 0 0 0 0 0 0 0 0 0 0 0 0 0 0 0 0 0 0 0 0 0 0 0 0 0 0
0 0 0 0 0 0 0 0 0 0 0 0 0 0 0 0 0 0 0 0 0 0 0 0 0 0 0 0 0 0 0 0 0 0 0 0 0 0 0 0 0 0 0 0 0 0 0 0 0
0 0 0 0 0 0 0 0 0 0 0 0 0 0 0 0 0 0 0 0 0 0 0 0 0 0 0 0 0 0 0 0 0 0 0 0 0 0 0 0 0 0 0 0 0 0 0 0 0
0 0 0 0 0 0 0 0 0 0 0 0 0 0 0 0 0 0 0 0 0 0 0 0 0 0 0 0 0 0 0 0 0 0 0 0 0 0 0 0 0 0 0 0 0 0 0 0 0
0 0 0 0 0 0 0 0 0 0 0 0 0 0 0 0 0 0 0 0 0 0 0 0 0 0 0 0 0 0 0 0 0 0 0 0 0 0 0 0 0 0 0 0 0 0 0 0 0
0 0 0 0 0 0 0 0 0 0 0 0 0 0 0 0 0 0 0 0 0 0 0 0 0 0 0 0 0 0 0 0 0 0 0 0 0 0 0 0 0 0 0 0 0 0 0 0 0
0 0 0 0 0 0 0 0 0 0 0 0 0 0 0 0 0 0 0 0 0 0 0 0 0 0 0 0 0 0 0 0 0 0 0 0 0 0 0 0 0 0 0 0 0 0 0 0 0
0 0 0 0 0 0 0 0 0 0 0 0 0 0 0 0 0 0 0 0 0 0 0 0 0 0 0 0 0 0 0 0 0 0 0 0 0 0 0 0 0 0 0 0 0 0 0 0 0
0 0 0 0 0 0 0 0 0 0 0 0 0 0 0 0 0 0 0 0 0 0 0 0 0 0 0 0 0 0 0 0 0 0 0 0 0 0 0 0 0 0 0 0 0 0 0 0 0
0 0 0 0 0 0 0 0 0 0 0 0 0 0 0 0 0 0 0 0 0 0 0 0 0 0 0 0 0 0 0 0 0 0 0 0 0 0 0 0 0 0 0 0 0 0 0 0 0
0 0 0 0 0 0 0 0 0 0 0 0 0 0 0 0 0 0 0 0 0 0 0 0 0 0 0 0 0 0 0 0 0 0 0 0 0 0 0 0 0 0 0 0 0 0 0 0 0
0 0 0 0 0 0 0 0 0 0 0 0 0 0 0 0 0 0 0 0 0 0 0 0 0 0 0 0 0 0 0 0 0 0 0 0 0 0 0 0 0 0 0 0 0 0 0 0 0
0 0 0 0 0 0 0 0 0 0 0 0 0 0 0 0 0 0 0 0 0 0 0 0 0 0 0 0 0 0 0 0 0 0 0 0 0 0 0 0 0 0 0 0 0 0 0 0 0
0 0 0 0 0 0 0 0 0 0 0 0 0 0 -0 -0 0 0 0 0 0 0 0 0 0 0 0 0 0 0 0 0 0 0 0 0 0 0 0 0 0 0 0 0 0 0 0 0 0
0 0 0 0 0 0 0 0 0 0 0 0 0 0 0 0 -0 0 0 0 0 0 0 0 0 0 0 0 0 0 0 0 0 0 0 0 0 0 0 0 0 0 0 0 0 0 0 0 0
0 0 0 0 0 0 0 0 0 0 0 0 0 0 0 0 0 0 0 0 0 0 0 0 0 0 0 0 0 0 0 0 0 0 0 0 0 0 0 0 0 0 0 0 0 0 0 0 0
0 0 0 0 0 0 0 0 0 0 0 0 0 0 0 0 0 0 0 0 0 0 0 0 0 0 0 0 0 0 0 0 0 0 0 0 0 0 0 0 0 0 0 0 0 0 0 0 0
0 0 0 0 0 0 0 0 0 0 0 0 0 0 0 0 0 0 0 -0 -0 0 0 0 0 0 0 0 0 0 0 0 0 0 0 0 0 0 0 0 0 0 0 0 0 0 0 0 0
Wind_Speed_500mb
35 36 27 15 3 3 11 8 8 9 11 11 16 10 11 32 11 8 31 23 28 17 26 24 24 27 25 23 18 12 7 6 6 9 14 26 30 27 26 22 20 27 27 29 30 31 32 32 33
31 35 17 13 4 8 10 8 14 16 24 13 8 8 11 11 20 28 25 27 27 17 24 24 24 26 24 21 14 9 7 6 8 8 13 21 31 20 23 19 16 25 25 29 30 29 31 31 31
30 24 14 6 5 9 8 8 18 19 12 6 7 8 9 10 13 28 16 32 30 19 21 24 25 26 23 18 13 12 10 11 11 8 11 20 29 16 26 19 19 22 23 28 27 27 27 28 29
28 18 14 5 9 14 10 13 32 15 5 3 10 18 14 16 12 18 36 29 32 15 19 26 25 25 21 15 12 9 9 10 12 11 15 26 28 19 25 18 19 21 21 23 24 24 24 25 26
24 14 9 7 10 15 13 9 18 9 15 16 4 11 14 9 17 17 41 29 27 23 18 30 25 23 21 17 12 8 7 10 11 12 14 20 26 20 26 18 17 20 19 20 20 20 21 21 23
13 11 8 11 1 14 18 7 6 15 17 12 4 8 13 4 13 31 33 28 22 25 20 31 30 23 20 19 17 9 7 13 14 15 15 19 23 21 20 17 19 20 18 17 17 16 17 18 19
13 7 16 22 11 10 9 5 8 10 21 10 4 5 16 12 18 31 30 27 24 24 19 30 31 31 26 21 19 12 8 11 13 17 17 19 17 16 20 16 15 15 15 14 14 13 13 14 15
11 8 12 16 8 10 10 6 2 4 7 19 10 8 13 20 19 31 32 28 26 26 22 23 29 31 31 28 24 18 13 9 11 18 18 17 18 15 15 16 14 13 12 11 11 9 9 9 11
9 6 9 20 14 11 21 9 8 8 9 9 10 4 9 18 21 34 37 32 28 27 30 23 26 28 28 32 29 24 17 14 13 15 19 17 15 15 15 14 14 13 12 10 8 6 5 5 7
8 8 16 24 15 20 19 7 14 7 16 15 16 13 17 17 24 33 39 39 35 34 34 35 32 33 32 30 33 29 23 18 20 18 17 16 16 17 16 13 13 13 11 10 7 4 3 1 3
11 16 25 25 20 19 30 8 8 12 11 23 36 37 25 21 24 27 35 40 43 37 36 41 35 37 38 35 35 32 30 25 24 23 23 19 21 19 15 15 15 14 14 12 10 8 7 6 0
27 27 26 39 16 10 21 27 20 21 37 8 21 15 30 28 26 25 31 36 35 37 37 39 45 40 42 37 31 30 25 28 27 27 28 28 29 23 20 19 19 19 17 16 12 12 11 9 9
17 22 41 35 20 26 21 32 23 34 32 25 17 13 29 32 29 27 28 32 34 38 42 44 43 48 48 44 39 35 39 34 33 35 33 34 31 23 23 22 23 20 18 18 16 16 14 14 13
26 29 38 45 27 31 23 30 33 28 23 31 36 30 30 37 31 30 35 40 44 44 44 47 48 47 49 52 47 46 44 40 37 38 39 37 32 28 28 27 27 24 23 21 21 19 18 17 16
42 24 23 28 33 24 24 23 23 41 44 41 38 28 32 41 39 41 35 41 48 51 45 49 51 52 51 52 51 45 47 44 41 41 40 39 38 35 31 30 29 28 27 26 24 23 23 22 20
14 25 25 15 36 38 23 31 19 39 50 52 49 43 38 43 46 47 41 39 46 55 53 53 54 57 55 53 49 50 48 46 45 44 42 41 40 40 35 33 33 30 29 30 29 27 26 22 20
23 17 29 26 45 21 25 17 21 38 50 52 43 44 49 48 46 50 54 49 48 54 58 60 58 59 58 56 53 53 51 50 48 45 46 43 41 40 40 37 35 32 32 33 30 29 27 25 23
12 30 33 30 18 31 30 34 19 37 51 43 37 46 48 50 56 55 53 58 54 55 58 61 60 60 59 59 59 57 56 56 53 52 51 47 44 43 44 42 40 38 39 36 34 32 30 29 27
25 28 31 26 25 26 20 27 27 37 46 50 55 56 53 50 53 56 60 57 61 62 63 64 65 67 66 67 71 69 68 64 61 60 56 53 51 48 48 47 46 44 42 38 37 35 35 35 32
33 35 38 18 9 7 16 27 15 26 39 55 55 58 63 62 60 63 66 64 64 69 70 70 69 71 73 75 74 72 72 69 65 63 62 59 58 55 54 52 52 48 47 46 44 43 40 40 36
36 38 36 25 18 9 14 22 19 25 49 54 71 67 63 61 58 59 55 60 63 71 79 79 78 75 72 74 75 73 70 70 72 75 71 68 66 63 61 58 57 55 55 54 49 47 47 46 42
37 33 27 22 17 12 3 16 22 14 33 40 70 70 72 73 76 73 69 62 65 76 75 80 83 83 75 73 78 82 84 84 83 80 74 69 70 68 66 66 65 62 63 62 55 50 51 50 50
31 23 30 32 27 20 27 14 22 14 27 43 41 57 56 75 81 83 84 91 85 68 82 77 85 89 87 81 80 83 88 86 85 82 76 70 70 71 71 72 71 70 69 67 62 57 57 57 58
34 7 12 24 20 21 42 30 24 28 44 48 38 53 56 63 72 73 75 78 79 86 81 79 77 90 94 93 89 90 89 87 89 86 84 81 78 77 76 75 74 74 72 72 67 63 63 64 63
26 22 10 14 18 21 25 19 38 37 33 23 26 49 52 54 64 63 58 67 69 68 79 86 85 88 92 99 94 96 99 94 95 90 86 86 84 85 83 75 75 75 73 72 69 69 69 67 65
26 28 11 12 6 12 18 12 23 37 57 69 69 73 74 63 67 53 46 40 56 63 76 80 84 95 93 95 100 101 98 100 102 98 96 94 89 86 84 76 73 71 72 71 69 70 68 66 64
29 31 36 14 7 9 6 13 19 25 34 20 20 29 35 32 35 46 53 59 65 60 61 67 83 89 96 96 97 98 98 101 104 103 100 98 91 91 86 80 74 68 70 71 71 70 69 66 62
34 16 11 9 19 22 13 9 16 4 17 20 9 10 23 31 28 20 23 31 41 45 46 56 72 74 86 88 92 97 101 103 103 103 101 99 95 92 89 85 77 68 69 69 69 70 70 66 60
14 13 6 1 9 7 4 8 9 11 14 16 16 18 21 26 32 22 32 29 36 32 33 43 50 60 75 81 85 87 92 99 98 100 98 98 96 93 91 88 81 70 66 70 71 72 72 66 60
37 29 20 10 12 4 3 15 13 14 12 20 12 13 27 36 29 27 41 48 41 44 40 38 34 47 63 79 83 79 83 93 97 98 96 96 97 93 89 86 82 74 69 71 73 74 71 65 60
Wind_Direction_500mb
356 358 339 326 314 114 60 64 92 104 114 59 69 23 33 43 15 88 145 141 144 173 146 145 146 145 141 140 147 137 135 130 111 89 92 114 101 97 94 102 89 95 95 97 98 99 97 94 93
345 1 336 275 273 30 71 99 78 57 79 79 76 339 38 79 60 130 151 147 150 161 148 148 152 153 149 152 149 136 103 109 110 86 104 117 103 105 103 89 85 99 98 98 94 97 96 96 95
342 320 292 318 252 63 59 72 97 82 94 130 153 80 26 85 83 134 171 153 141 171 160 151 157 160 161 163 152 132 87 93 96 79 107 112 111 126 106 105 100 95 95 97 102 100 98 98 97
340 350 258 258 30 88 47 58 112 123 77 82 16 99 98 120 133 192 146 153 150 174 176 161 164 164 167 165 153 128 75 101 114 121 123 121 119 124 118 124 108 104 103 105 105 105 102 99 99
331 277 266 284 283 99 85 77 138 159 128 142 139 116 104 130 164 175 148 154 165 168 170 165 169 169 167 168 162 125 80 109 105 112 114 126 128 129 129 127 130 112 114 110 107 103 102 101 94
305 296 294 268 354 105 94 50 187 168 113 94 192 255 113 158 183 154 153 157 169 171 186 174 169 173 173 175 172 153 134 113 120 124 125 132 136 137 139 142 117 123 119 114 110 108 106 98 92
285 288 284 293 290 307 81 110 221 207 140 154 83 310 138 144 208 172 150 167 169 184 182 181 181 176 178 188 180 173 169 134 138 147 144 135 145 140 148 147 130 133 130 121 116 114 105 95 90
303 284 283 290 295 283 111 172 267 309 106 139 133 2 130 192 200 162 157 182 174 191 187 182 191 186 183 187 191 194 199 176 158 164 156 152 152 150 140 150 156 156 142 141 129 110 103 96 85
287 275 254 267 280 272 135 190 182 218 129 151 147 114 132 205 180 174 180 188 180 201 175 180 191 190 197 193 193 201 195 195 187 180 175 168 164 164 173 167 174 172 169 156 138 131 115 92 77
243 237 250 275 359 345 150 195 175 197 204 187 171 203 202 208 192 195 191 184 196 209 188 177 208 187 193 198 202 206 209 209 205 195 180 180 185 186 188 191 189 192 187 181 174 177 189 132 83
229 237 278 285 344 350 332 130 272 278 250 212 205 201 209 213 205 203 209 203 208 210 202 190 208 189 191 201 203 210 215 209 209 208 191 180 214 208 205 207 210 210 207 204 205 218 238 251 312
266 265 272 283 311 344 312 311 309 239 278 271 224 161 205 219 222 218 216 211 213 211 209 209 198 199 201 201 212 211 224 208 207 216 204 204 220 208 220 213 222 221 216 224 219 232 250 270 259
232 253 277 269 285 281 276 284 273 285 284 272 263 194 212 231 227 220 221 212 215 222 213 215 208 202 204 206 215 198 224 226 216 214 217 218 223 222 221 228 229 228 226 231 235 245 257 263 275
254 239 242 264 259 261 253 266 273 264 278 278 251 245 222 242 237 221 215 215 207 228 220 219 212 213 209 212 214 209 220 226 219 218 221 222 225 225 226 227 231 233 234 234 241 250 260 269 281
264 260 277 253 270 257 270 268 258 265 270 270 287 253 250 232 236 234 229 220 209 223 225 221 220 216 217 220 218 217 223 225 220 222 225 225 223 226 228 231 233 233 235 239 243 248 256 268 277
246 248 248 228 247 250 220 256 275 286 246 248 256 251 236 238 236 236 237 229 217 217 225 225 224 221 221 223 222 221 226 226 228 227 229 229 225 227 229 230 234 235 237 241 244 248 255 264 273
227 243 233 243 243 237 208 253 241 259 269 271 268 250 253 243 233 240 235 231 223 221 222 227 227 225 225 225 226 227 228 231 232 231 232 233 231 228 231 232 236 237 239 242 244 248 254 261 270
213 224 241 254 232 224 241 247 229 257 278 277 276 264 259 265 245 246 241 234 223 223 227 228 230 228 227 226 228 229 230 233 232 234 235 236 235 233 232 234 236 237 238 241 244 247 253 262 265
254 242 249 247 225 256 253 238 240 245 260 271 266 268 268 267 268 256 245 239 228 223 224 229 228 227 227 225 225 229 231 233 235 235 237 237 238 236 236 236 238 239 245 246 248 250 253 259 266
237 251 261 272 239 306 260 267 250 248 261 267 265 260 255 257 257 261 240 235 238 230 226 226 231 231 229 227 232 233 238 240 243 242 240 240 241 241 241 242 244 244 246 246 246 249 254 258 258
235 239 249 269 313 318 340 284 278 270 278 269 264 265 259 258 258 251 255 237 241 238 231 229 232 232 233 232 229 232 235 240 242 241 242 242 242 243 246 245 247 247 247 249 249 252 255 259 260
234 231 253 268 282 254 110 275 250 245 252 247 249 248 253 252 252 253 249 248 245 240 245 239 235 233 235 233 232 233 235 236 243 245 245 245 246 246 246 247 247 246 248 250 251 253 256 258 257
232 223 236 233 247 261 259 265 257 203 252 248 254 262 264 250 248 248 246 244 238 247 246 251 242 235 235 236 236 236 237 243 244 246 249 247 248 249 247 246 247 246 248 252 254 255 256 257 259
230 216 251 241 243 239 242 225 261 247 249 265 267 266 267 265 254 254 253 249 245 243 246 246 248 245 239 236 236 237 241 243 241 243 246 248 247 248 247 246 246 247 248 251 255 256 256 256 254
205 203 228 222 219 233 236 226 241 267 252 270 260 268 264 275 266 256 262 250 247 242 246 246 247 248 243 238 237 243 243 244 246 247 247 245 245 246 249 246 247 247 248 250 251 254 256 254 249
206 190 193 212 201 250 221 232 250 236 259 249 257 262 267 281 285 283 266 263 253 252 242 250 248 250 246 242 238 241 246 247 248 247 247 247 248 251 254 253 251 250 250 248 248 250 253 253 251
207 215 227 285 102 290 267 295 299 264 270 266 269 257 269 292 286 275 275 273 267 261 257 251 252 253 248 249 247 244 246 247 249 250 248 248 248 250 253 254 254 250 248 246 244 246 248 249 251
212 168 187 183 219 231 226 258 238 275 247 247 266 51 35 13 356 335 311 291 288 284 274 265 250 248 251 251 253 250 249 249 250 249 248 248 248 246 250 252 252 247 243 240 238 240 244 247 248
192 195 227 102 230 190 152 228 230 113 65 81 86 68 14 359 0 15 8 9 4 335 303 283 263 245 251 248 251 250 252 251 251 250 251 251 249 246 246 248 248 246 239 235 233 236 241 243 245
217 206 178 185 201 225 108 254 338 79 118 115 92 16 341 346 343 342 339 336 341 344 344 344 300 256 245 248 248 248 255 253 247 247 250 249 246 243 243 244 244 244 240 233 233 234 239 244 245
Wind_Speed_850mb
35 36 27 15 3 3 11 8 8 9 11 11 16 10 11 32 11 8 31 23 28 17 26 24 24 27 25 23 18 12 7 6 6 9 14 26 30 27 26 22 20 27 27 29 30 31 32 32 33
31 35 17 13 4 8 10 8 14 16 24 13 8 8 11 11 20 28 25 27 27 17 24 24 24 26 24 21 14 9 7 6 8 8 13 21 31 20 23 19 16 25 25 29 30 29 31 31 31
30 24 14 6 5 9 8 8 18 19 12 6 7 8 9 10 13 28 16 32 30 19 21 24 25 26 23 18 13 12 10 11 11 8 11 20 29 16 26 19 19 22 23 28 27 27 27 28 29
28 18 14 5 9 14 10 13 32 15 5 3 10 18 14 16 12 18 36 29 32 15 19 26 25 25 21 15 12 9 9 10 12 11 15 26 28 19 25 18 19 21 21 23 24 24 24 25 26
24 14 9 7 10 15 13 9 18 9 15 16 4 11 14 9 17 17 41 29 27 23 18 30 25 23 21 17 12 8 7 10 11 12 14 20 26 20 26 18 17 20 19 20 20 20 21 21 23
13 11 8 11 1 14 18 7 6 15 17 12 4 8 13 4 13 31 33 28 22 25 20 31 30 23 20 19 17 9 7 13 14 15 15 19 23 21 20 17 19 20 18 17 17 16 17 18 19
13 7 16 22 11 10 9 5 8 10 21 10 4 5 16 12 18 31 30 27 24 24 19 30 31 31 26 21 19 12 8 11 13 17 17 19 17 16 20 16 15 15 15 14 14 13 13 14 15
11 8 12 16 8 10 10 6 2 4 7 19 10 8 13 20 19 31 32 28 26 26 22 23 29 31 31 28 24 18 13 9 11 18 18 17 18 15 15 16 14 13 12 11 11 9 9 9 11
9 6 9 20 14 11 21 9 8 8 9 9 10 4 9 18 21 34 37 32 28 27 30 23 26 28 28 32 29 24 17 14 13 15 19 17 15 15 15 14 14 13 12 10 8 6 5 5 7
8 8 16 24 15 20 19 7 14 7 16 15 16 13 17 17 24 33 39 39 35 34 34 35 32 33 32 30 33 29 23 18 20 18 17 16 16 17 16 13 13 13 11 10 7 4 3 1 3
11 16 25 25 20 19 30 8 8 12 11 23 36 37 25 21 24 27 35 40 43 37 36 41 35 37 38 35 35 32 30 25 24 23 23 19 21 19 15 15 15 14 14 12 10 8 7 6 0
27 27 26 39 16 10 21 27 20 21 37 8 21 15 30 28 26 25 31 36 35 37 37 39 45 40 42 37 31 30 25 28 27 27 28 28 29 23 20 19 19 19 17 16 12 12 11 9 9
17 22 41 35 20 26 21 32 23 34 32 25 17 13 29 32 29 27 28 32 34 38 42 44 43 48 48 44 39 35 39 34 33 35 33 34 31 23 23 22 23 20 18 18 16 16 14 14 13
26 29 38 45 27 31 23 30 33 28 23 31 36 30 30 37 31 30 35 40 44 44 44 47 48 47 49 52 47 46 44 40 37 38 39 37 32 28 28 27 27 24 23 21 21 19 18 17 16
42 24 23 28 33 24 24 23 23 41 44 41 38 28 32 41 39 41 35 41 48 51 45 49 51 52 51 52 51 45 47 44 41 41 40 39 38 35 31 30 29 28 27 26 24 23 23 22 20
14 25 25 15 36 38 23 31 19 39 50 52 49 43 38 43 46 47 41 39 46 55 53 53 54 57 55 53 49 50 48 46 45 44 42 41 40 40 35 33 33 30 29 30 29 27 26 22 20
23 17 29 26 45 21 25 17 21 38 50 52 43 44 49 48 46 50 54 49 48 54 58 60 58 59 58 56 53 53 51 50 48 45 46 43 41 40 40 37 35 32 32 33 30 29 27 25 23
12 30 33 30 18 31 30 34 19 37 51 43 37 46 48 50 56 55 53 58 54 55 58 61 60 60 59 59 59 57 56 56 53 52 51 47 44 43 44 42 40 38 39 36 34 32 30 29 27
25 28 31 26 25 26 20 27 27 37 46 50 55 56 53 50 53 56 60 57 61 62 63 64 65 67 66 67 71 69 68 64 61 60 56 53 51 48 48 47 46 44 42 38 37 35 35 35 32
33 35 38 18 9 7 16 27 15 26 39 55 55 58 63 62 60 63 66 64 64 69 70 70 69 71 73 75 74 72 72 69 65 63 62 59 58 55 54 52 52 48 47 46 44 43 40 40 36
36 38 36 25 18 9 14 22 19 25 49 54 71 67 63 61 58 59 55 60 63 71 79 79 78 75 72 74 75 73 70 70 72 75 71 68 66 63 61 58 57 55 55 54 49 47 47 46 42
37 33 27 22 17 12 3 16 22 14 33 40 70 70 72 73 76 73 69 62 65 76 75 80 83 83 75 73 78 82 84 84 83 80 74 69 70 68 66 66 65 62 63 62 55 50 51 50 50
31 23 30 32 27 20 27 14 22 14 27 43 41 57 56 75 81 83 84 91 85 68 82 77 85 89 87 81 80 83 88 86 85 82 76 70 70 71 71 72 71 70 69 67 62 57 57 57 58
34 7 12 24 20 21 42 30 24 28 44 48 38 53 56 63 72 73 75 78 79 86 81 79 77 90 94 93 89 90 89 87 89 86 84 81 78 77 76 75 74 74 72 72 67 63 63 64 63
26 22 10 14 18 21 25 19 38 37 33 23 26 49 52 54 64 63 58 67 69 68 79 86 85 88 92 99 94 96 99 94 95 90 86 86 84 85 83 75 75 75 73 72 69 69 69 67 65
26 28 11 12 6 12 18 12 23 37 57 69 69 73 74 63 67 53 46 40 56 63 76 80 84 95 93 95 100 101 98 100 102 98 96 94 89 86 84 76 73 71 72 71 69 70 68 66 64
29 31 36 14 7 9 6 13 19 25 34 20 20 29 35 32 35 46 53 59 65 60 61 67 83 89 96 96 97 98 98 101 104 103 100 98 91 91 86 80 74 68 70 71 71 70 69 66 62
34 16 11 9 19 22 13 9 16 4 17 20 9 10 23 31 28 20 23 31 41 45 46 56 72 74 86 88 92 97 101 103 103 103 101 99 95 92 89 85 77 68 69 69 69 70 70 66 60
14 13 6 1 9 7 4 8 9 11 14 16 16 18 21 26 32 22 32 29 36 32 33 43 50 60 75 81 85 87 92 99 98 100 98 98 96 93 91 88 81 70 66 70 71 72 72 66 60
37 29 20 10 12 4 3 15 13 14 12 20 12 13 27 36 29 27 41 48 41 44 40 38 34 47 63 79 83 79 83 93 97 98 96 96 97 93 89 86 82 74 69 71 73 74 71 65 60
Wind_Direction_850mb
356 358 339 326 314 114 60 64 92 104 114 59 69 23 33 43 15 88 145 141 144 173 146 145 146 145 141 140 147 137 135 130 111 89 92 114 101 97 94 102 89 95 95 97 98 99 97 94 93
345 1 336 275 273 30 71 99 78 57 79 79 76 339 38 79 60 130 151 147 150 161 148 148 152 153 149 152 149 136 103 109 110 86 104 117 103 105 103 89 85 99 98 98 94 97 96 96 95
342 320 292 318 252 63 59 72 97 82 94 130 153 80 26 85 83 134 171 153 141 171 160 151 157 160 161 163 152 132 87 93 96 79 107 112 111 126 106 105 100 95 95 97 102 100 98 98 97
340 350 258 258 30 88 47 58 112 123 77 82 16 99 98 120 133 192 146 153 150 174 176 161 164 164 167 165 153 128 75 101 114 121 123 121 119 124 118 124 108 104 103 105 105 105 102 99 99
331 277 266 284 283 99 85 77 138 159 128 142 139 116 104 130 164 175 148 154 165 168 170 165 169 169 167 168 162 125 80 109 105 112 114 126 128 129 129 127 130 112 114 110 107 103 102 101 94
305 296 294 268 354 105 94 50 187 168 113 94 192 255 113 158 183 154 153 157 169 171 186 174 169 173 173 175 172 153 134 113 120 124 125 132 136 137 139 142 117 123 119 114 110 108 106 98 92
285 288 284 293 290 307 81 110 221 207 140 154 83 310 138 144 208 172 150 167 169 184 182 181 181 176 178 188 180 173 169 134 138 147 144 135 145 140 148 147 130 133 130 121 116 114 105 95 90
303 284 283 290 295 283 111 172 267 309 106 139 133 2 130 192 200 162 157 182 174 191 187 182 191 186 183 187 191 194 199 176 158 164 156 152 152 150 140 150 156 156 142 141 129 110 103 96 85
287 275 254 267 280 272 135 190 182 218 129 151 147 114 132 205 180 174 180 188 180 201 175 180 191 190 197 193 193 201 195 195 187 180 175 168 164 164 173 167 174 172 169 156 138 131 115 92 77
243 237 250 275 359 345 150 195 175 197 204 187 171 203 202 208 192 195 191 184 196 209 188 177 208 187 193 198 202 206 209 209 205 195 180 180 185 186 188 191 189 192 187 181 174 177 189 132 83
229 237 278 285 344 350 332 130 272 278 250 212 205 201 209 213 205 203 209 203 208 210 202 190 208 189 191 201 203 210 215 209 209 208 191 180 214 208 205 207 210 210 207 204 205 218 238 251 312
266 265 272 283 311 344 312 311 309 239 278 271 224 161 205 219 222 218 216 211 213 211 209 209 198 199 201 201 212 211 224 208 207 216 204 204 220 208 220 213 222 221 216 224 219 232 250 270 259
232 253 277 269 285 281 276 284 273 285 284 272 263 194 212 231 227 220 221 212 215 222 213 215 208 202 204 206 215 198 224 226 216 214 217 218 223 222 221 228 229 228 226 231 235 245 257 263 275
254 239 242 264 259 261 253 266 273 264 278 278 251 245 222 242 237 221 215 215 207 228 220 219 212 213 209 212 214 209 220 226 219 218 221 222 225 225 226 227 231 233 234 234 241 250 260 269 281
264 260 277 253 270 257 270 268 258 265 270 270 287 253 250 232 236 234 229 220 209 223 225 221 220 216 217 220 218 217 223 225 220 222 225 225 223 226 228 231 233 233 235 239 243 248 256 268 277
246 248 248 228 247 250 220 256 275 286 246 248 256 251 236 238 236 236 237 229 217 217 225 225 224 221 221 223 222 221 226 226 228 227 229 229 225 227 229 230 234 235 237 241 244 248 255 264 273
227 243 233 243 243 237 208 253 241 259 269 271 268 250 253 243 233 240 235 231 223 221 222 227 227 225 225 225 226 227 228 231 232 231 232 233 231 228 231 232 236 237 239 242 244 248 254 261 270
213 224 241 254 232 224 241 247 229 257 278 277 276 264 259 265 245 246 241 234 223 223 227 228 230 228 227 226 228 229 230 233 232 234 235 236 235 233 232 234 236 237 238 241 244 247 253 262 265
254 242 249 247 225 256 253 238 240 245 260 271 266 268 268 267 268 256 245 239 228 223 224 229 228 227 227 225 225 229 231 233 235 235 237 237 238 236 236 236 238 239 245 246 248 250 253 259 266
237 251 261 272 239 306 260 267 250 248 261 267 265 260 255 257 257 261 240 235 238 230 226 226 231 231 229 227 232 233 238 240 243 242 240 240 241 241 241 242 244 244 246 246 246 249 254 258 258
235 239 249 269 313 318 340 284 278 270 278 269 264 265 259 258 258 251 255 237 241 238 231 229 232 232 233 232 229 232 235 240 242 241 242 242 242 243 246 245 247 247 247 249 249 252 255 259 260
234 231 253 268 282 254 110 275 250 245 252 247 249 248 253 252 252 253 249 248 245 240 245 239 235 233 235 233 232 233 235 236 243 245 245 245 246 246 246 247 247 246 248 250 251 253 256 258 257
232 223 236 233 247 261 259 265 257 203 252 248 254 262 264 250 248 248 246 244 238 247 246 251 242 235 235 236 236 236 237 243 244 246 249 247 248 249 247 246 247 246 248 252 254 255 256 257 259
230 216 251 241 243 239 242 225 261 247 249 265 267 266 267 265 254 254 253 249 245 243 246 246 248 245 239 236 236 237 241 243 241 243 246 248 247 248 247 246 246 247 248 251 255 256 256 256 254
205 203 228 222 219 233 236 226 241 267 252 270 260 268 264 275 266 256 262 250 247 242 246 246 247 248 243 238 237 243 243 244 246 247 247 245 245 246 249 246 247 247 248 250 251 254 256 254 249
206 190 193 212 201 250 221 232 250 236 259 249 257 262 267 281 285 283 266 263 253 252 242 250 248 250 246 242 238 241 246 247 248 247 247 247 248 251 254 253 251 250 250 248 248 250 253 253 251
207 215 227 285 102 290 267 295 299 264 270 266 269 257 269 292 286 275 275 273 267 261 257 251 252 253 248 249 247 244 246 247 249 250 248 248 248 250 253 254 254 250 248 246 244 246 248 249 251
212 168 187 183 219 231 226 258 238 275 247 247 266 51 35 13 356 335 311 291 288 284 274 265 250 248 251 251 253 250 249 249 250 249 248 248 248 246 250 252 252 247 243 240 238 240 244 247 248
192 195 227 102 230 190 152 228 230 113 65 81 86 68 14 359 0 15 8 9 4 335 303 283 263 245 251 248 251 250 252 251 251 250 251 251 249 246 246 248 248 246 239 235 233 236 241 243 245
217 206 178 185 201 225 108 254 338 79 118 115 92 16 341 346 343 342 339 336 341 344 344 344 300 256 245 248 248 248 255 253 247 247 250 249 246 243 243 244 244 244 240 233 233 234 239 244 245